Starlink 30965

operational
NORAD ID: 58477 Int'l Des: 2023-186 Owner: SPXS Country: US Constellation: starlink
LEOCIRCULAR

About Starlink 30965

Description loading...

Live Position

Loading 3D Globe...

Upcoming Passes

Altitude History

Altitude vs Time

uPlot chart will show altitude changes over time

Two-Line Element Set

1 58477U 23186E 25350.73984801 .00000458 00000-0 48980-4 0 9996
2 58477 43.0043 145.1795 0002145 272.3658 87.6939 15.02536187113526
Epoch: Dec 16, 2025 • Age: 13 hours

Current Status

Altitude 561.5 km
Velocity 7.58 km/s
Sub-Earth Point 33.05°N, 85.82°E
Launch Date Dec 3, 2023
Age 2 years
Type internet

Technical Details

Classification Payload
Mass 730.00 kg
Dry Mass 700.00 kg
Total Mass 730.00 kg
Length 0.30 m
Diameter 4.10 m
Span 29.00 m
Shape Box + pan
Manufacturer SPXS
Bus Type Starlink V2M
Phase Status In Orbit
Owner/State SPXS/US

Large Constellations

Loading constellations...